sat.trackr.live / text

‹ back to catalog

STARLINK-11120 [DTC]

NORAD 60042 · 2024-112E

PAYLOAD ACTIVE UNKNOWN

§ Identity

Operator
Country
US
Launch date
2024-06-08
Launch site
AFWTR
Launch vehicle
Mass (kg)
RCS (m²)

Purposes: comms

External: N2YO · Heavens-Above · Gunter

§ Orbital elements

Epoch: 2026-09-21T15:01:17.181984Z

Period
91.74 min
Inclination
53.1594°
Eccentricity
0.0001364
Mean motion
15.69716274 rev/d
Perigee alt
358.8 km
Apogee alt
360.6 km
Semi-major
6,737.8 km
B*
-2.2410e-5
RAAN
20.4744°
Arg perigee
108.2341°
Mean anomaly
251.8825°
Rev number
13,175

§ Raw data

STARLINK-11120 [DTC]1 60042U 24112E   26264.62589331 -.00003304  00000+0 -22410-4 0  99932 60042  53.1594  20.4744 0001364 108.2341 251.8825 15.69716274131751

JSON: /api/v1/satellites/60042 · /tle

For live sub-satellite position, see the globe view (requires WebGL).

§ Visibility from observer

Set your observer location to see the next 7 days of passes ≥ 10°. The values pass through the URL so the page stays shareable.

No JS? Fill the form by hand. The geolocation button needs JavaScript.